• In Slovakia
  • List of Countries
  • For 7 days
  • Water Temperature
  • Satellite Maps
  • Weather Map
  • Weather Widgets
  • user-avatar
    Login

    Hourly Weather Abovyan

    Today, 23 May, Wednesday

    Time Temperature Precipitation Wind Pressure Humidity
    00:00 +18°C° 0.4 mm 1 mps 675 mmHg 80%
    01:00 +16°C° 0.2 mm 1 mps 674 mmHg 81%
    02:00 +16°C° 0.2 mm 1 mps 674 mmHg 82%
    03:00 +16°C° 0.2 mm 1 mps 674 mmHg 83%
    04:00 +16°C° 0.2 mm 1 mps 675 mmHg 81%
    05:00 +18°C° 0.2 mm 1 mps 675 mmHg 79%
    06:00 +18°C° 0.2 mm 1 mps 675 mmHg 77%
    07:00 +19°C° 0.1 mm 1 mps 675 mmHg 71%
    08:00 +20°C° 0.1 mm 2 mps 675 mmHg 65%
    09:00 +21°C° 0.1 mm 2 mps 675 mmHg 59%
    10:00 +23°C° 0.3 mm 2 mps 675 mmHg 56%
    11:00 +24°C° 0.3 mm 3 mps 675 mmHg 52%
    12:00 +25°C° 0.3 mm 3 mps 675 mmHg 49%
    13:00 +25°C° 0.6 mm 3 mps 675 mmHg 49%
    14:00 +26°C° 0.6 mm 3 mps 675 mmHg 48%
    15:00 +26°C° 0.6 mm 4 mps 675 mmHg 48%
    16:00 +25°C° 0.6 mm 4 mps 674 mmHg 51%
    17:00 +24°C° 0.6 mm 3 mps 674 mmHg 54%
    18:00 +24°C° 0.6 mm 3 mps 674 mmHg 57%
    19:00 +21°C° 0.3 mm 3 mps 674 mmHg 61%
    20:00 +20°C° 0.3 mm 3 mps 674 mmHg 65%
    21:00 +18°C° 0.3 mm 3 mps 674 mmHg 69%
    22:00 +17°C° 0.1 mm 2 mps 674 mmHg 69%
    23:00 +17°C° 0.1 mm 2 mps 674 mmHg 68%

    Tomorrow, 24 May, Thursday

    Time Temperature Precipitation Wind Pressure Humidity
    00:00 +16°C° 0.1 mm 2 mps 674 mmHg 67%
    01:00 +16°C° 0 mm 2 mps 673 mmHg 67%
    02:00 +15°C° 0 mm 2 mps 673 mmHg 67%
    03:00 +15°C° 0 mm 2 mps 673 mmHg 67%
    04:00 +15°C° 0 mm 2 mps 673 mmHg 66%
    05:00 +16°C° 0 mm 2 mps 673 mmHg 65%
    06:00 +16°C° 0 mm 2 mps 673 mmHg 64%
    07:00 +18°C° 0 mm 2 mps 673 mmHg 57%
    08:00 +21°C° 0 mm 1 mps 673 mmHg 51%
    09:00 +23°C° 0 mm 1 mps 673 mmHg 44%
    10:00 +24°C° 0 mm 2 mps 673 mmHg 42%
    11:00 +25°C° 0 mm 2 mps 673 mmHg 39%
    12:00 +26°C° 0 mm 2 mps 673 mmHg 37%
    13:00 +26°C° 0 mm 2 mps 672 mmHg 37%
    14:00 +26°C° 0 mm 3 mps 672 mmHg 37%
    15:00 +26°C° 0 mm 3 mps 672 mmHg 37%
    16:00 +26°C° 0.1 mm 3 mps 671 mmHg 40%
    17:00 +25°C° 0.1 mm 2 mps 671 mmHg 44%
    18:00 +24°C° 0.1 mm 2 mps 671 mmHg 47%
    19:00 +21°C° 0 mm 2 mps 671 mmHg 52%
    20:00 +19°C° 0 mm 2 mps 671 mmHg 57%
    21:00 +17°C° 0 mm 2 mps 671 mmHg 62%
    22:00 +17°C° 0 mm 2 mps 670 mmHg 63%
    23:00 +16°C° 0 mm 2 mps 670 mmHg 65%

    Day after tomorrow, 25 May, Friday

    Time Temperature Precipitation Wind Pressure Humidity
    00:00 +16°C° 0 mm 2 mps 670 mmHg 66%
    01:00 +16°C° 0 mm 2 mps 670 mmHg 66%
    02:00 +15°C° 0 mm 1 mps 670 mmHg 66%
    03:00 +15°C° 0 mm 1 mps 669 mmHg 67%
    04:00 +16°C° 0 mm 1 mps 669 mmHg 66%
    05:00 +16°C° 0 mm 1 mps 670 mmHg 65%
    06:00 +18°C° 0 mm 1 mps 670 mmHg 64%
    07:00 +20°C° 0 mm 1 mps 670 mmHg 59%
    08:00 +21°C° 0 mm 1 mps 670 mmHg 54%
    09:00 +23°C° 0 mm 2 mps 670 mmHg 49%
    10:00 +23°C° 0.1 mm 2 mps 670 mmHg 48%
    11:00 +24°C° 0.1 mm 2 mps 669 mmHg 47%
    12:00 +25°C° 0.1 mm 2 mps 669 mmHg 46%
    13:00 +25°C° 0.5 mm 2 mps 669 mmHg 46%
    14:00 +26°C° 0.5 mm 2 mps 669 mmHg 46%
    15:00 +26°C° 0.5 mm 2 mps 668 mmHg 45%
    16:00 +25°C° 0.8 mm 2 mps 668 mmHg 49%
    17:00 +24°C° 0.8 mm 2 mps 668 mmHg 53%
    18:00 +24°C° 0.8 mm 1 mps 668 mmHg 56%
    19:00 +22°C° 0.7 mm 1 mps 668 mmHg 60%
    20:00 +21°C° 0.7 mm 1 mps 668 mmHg 64%
    21:00 +20°C° 0.7 mm 1 mps 668 mmHg 67%
    22:00 +19°C° 0.3 mm 1 mps 668 mmHg 68%
    23:00 +19°C° 0.3 mm 1 mps 668 mmHg 68%

    26 May, Saturday

    Time Temperature Precipitation Wind Pressure Humidity
    00:00 +18°C° 0.3 mm 1 mps 668 mmHg 69%
    01:00 +18°C° 0.2 mm 1 mps 668 mmHg 70%
    02:00 +18°C° 0.2 mm 1 mps 668 mmHg 71%
    03:00 +16°C° 0.2 mm 1 mps 668 mmHg 72%
    04:00 +18°C° 0.2 mm 1 mps 668 mmHg 70%
    05:00 +19°C° 0.2 mm 1 mps 669 mmHg 69%
    06:00 +19°C° 0.2 mm 1 mps 669 mmHg 68%
    07:00 +21°C° 0.2 mm 1 mps 669 mmHg 64%
    08:00 +22°C° 0.2 mm 1 mps 669 mmHg 60%
    09:00 +23°C° 0.2 mm 1 mps 669 mmHg 56%
    10:00 +24°C° 0.4 mm 2 mps 669 mmHg 53%
    11:00 +25°C° 0.4 mm 2 mps 669 mmHg 50%
    12:00 +26°C° 0.4 mm 2 mps 669 mmHg 47%
    13:00 +26°C° 1 mm 2 mps 669 mmHg 47%
    14:00 +27°C° 1 mm 2 mps 669 mmHg 47%
    15:00 +27°C° 1 mm 2 mps 669 mmHg 47%
    16:00 +26°C° 2.3 mm 2 mps 669 mmHg 53%
    17:00 +25°C° 2.3 mm 3 mps 669 mmHg 58%
    18:00 +22°C° 2.3 mm 3 mps 669 mmHg 64%
    19:00 +21°C° 1.1 mm 3 mps 669 mmHg 67%
    20:00 +20°C° 1.1 mm 2 mps 670 mmHg 70%
    21:00 +19°C° 1.1 mm 2 mps 670 mmHg 73%
    22:00 +19°C° 0.7 mm 2 mps 670 mmHg 73%
    23:00 +19°C° 0.7 mm 1 mps 671 mmHg 74%

    27 May, Sunday

    Time Temperature Precipitation Wind Pressure Humidity
    00:00 +19°C° 0.7 mm 1 mps 671 mmHg 75%
    01:00 +19°C° 0.4 mm 1 mps 671 mmHg 75%
    02:00 +18°C° 0.4 mm 1 mps 671 mmHg 75%
    03:00 +18°C° 0.4 mm 1 mps 671 mmHg 75%
    04:00 +18°C° 0.1 mm 1 mps 672 mmHg 74%
    05:00 +19°C° 0.1 mm 1 mps 672 mmHg 73%
    06:00 +19°C° 0.1 mm 1 mps 673 mmHg 73%
    07:00 +21°C° 0 mm 1 mps 673 mmHg 66%
    08:00 +21°C° 0 mm 2 mps 674 mmHg 59%
    09:00 +24°C° 0 mm 2 mps 674 mmHg 52%
    10:00 +25°C° 0 mm 2 mps 675 mmHg 48%
    11:00 +26°C° 0 mm 2 mps 675 mmHg 45%
    12:00 +27°C° 0 mm 2 mps 675 mmHg 42%
    13:00 +27°C° 0.1 mm 2 mps 675 mmHg 42%
    14:00 +27°C° 0.1 mm 2 mps 675 mmHg 42%
    15:00 +27°C° 0.1 mm 2 mps 675 mmHg 42%
    16:00 +26°C° 0.1 mm 3 mps 675 mmHg 47%
    17:00 +25°C° 0.1 mm 3 mps 675 mmHg 51%
    18:00 +23°C° 0.1 mm 4 mps 675 mmHg 56%
    19:00 +21°C° 0 mm 4 mps 675 mmHg 61%
    20:00 +20°C° 0 mm 3 mps 676 mmHg 67%
    21:00 +18°C° 0 mm 3 mps 676 mmHg 72%
    22:00 +17°C° 0 mm 3 mps 676 mmHg 73%
    23:00 +17°C° 0 mm 3 mps 675 mmHg 74%

    28 May, Monday

    Time Temperature Precipitation Wind Pressure Humidity
    00:00 +16°C° 0 mm 2 mps 675 mmHg 75%
    01:00 +16°C° 0 mm 2 mps 675 mmHg 75%
    02:00 +16°C° 0 mm 2 mps 675 mmHg 75%
    03:00 +15°C° 0 mm 1 mps 675 mmHg 75%
    04:00 +16°C° 0 mm 1 mps 675 mmHg 72%
    05:00 +18°C° 0 mm 1 mps 675 mmHg 68%
    06:00 +17°C° 0 mm 0 mps 675 mmHg 65%
    07:00 +21°C° 0 mm 1 mps 675 mmHg 60%
    08:00 +23°C° 0 mm 1 mps 675 mmHg 55%
    09:00 +24°C° 0 mm 1 mps 675 mmHg 49%
    10:00 +25°C° 0 mm 2 mps 675 mmHg 46%
    11:00 +27°C° 0 mm 2 mps 674 mmHg 43%
    12:00 +28°C° 0 mm 2 mps 674 mmHg 40%
    13:00 +28°C° 0 mm 2 mps 674 mmHg 39%
    14:00 +29°C° 0 mm 2 mps 674 mmHg 38%
    15:00 +29°C° 0 mm 2 mps 673 mmHg 38%
    16:00 +28°C° 0.2 mm 1 mps 673 mmHg 41%
    17:00 +28°C° 0.2 mm 1 mps 673 mmHg 45%
    18:00 +27°C° 0.2 mm 1 mps 673 mmHg 49%
    19:00 +25°C° 0.5 mm 1 mps 673 mmHg 54%
    20:00 +23°C° 0.5 mm 2 mps 673 mmHg 59%
    21:00 +21°C° 0.5 mm 2 mps 673 mmHg 64%
    22:00 +20°C° 0.5 mm 2 mps 673 mmHg 67%
    23:00 +19°C° 0.5 mm 2 mps 673 mmHg 70%
    Show more